SpaceMobile-003

operational
NORAD ID: 61045 Int'l Des: 2024-163 Owner: ASTS Country: US Constellation: bluewalker
LEOCIRCULAR

Über SpaceMobile-003

Beschreibung wird geladen...

Live-Position

3D-Globus wird geladen...

Nächste Überflüge

Höhenverlauf

Altitude vs Time

uPlot chart will show altitude changes over time

Zweizeiliger Elementsatz

1 61045U 24163A 26063.01199228 .00013795 00000-0 62244-3 0 9997
2 61045 52.9677 73.2050 0007095 168.0557 192.0607 15.21269983 81767
Epoch: 4. März 2026 • Age: 20 hours

Aktueller Status

Höhe 513.6 km
Geschwindigkeit 7.61 km/s
Subsatellitenpunkt -41.44°S, 175.34°W
Startdatum 12. Sept. 2024
Alter 1.4 years
Typ other

Technische Details

Klassifizierung Payload
Masse 1500.00 kg
Trockenmasse 1500.00 kg
Gesamtmasse 1500.00 kg
Länge 1.00 m
Durchmesser 1.00 m
Spannweite 9.00 m
Form Box + plate
Hersteller ASTS
Bus-Typ BW3
Phasenstatus In Orbit
Besitzer/Staat ASTS/US

Große Konstellationen

Loading constellations...